This demonstration page uses our WeatherBlox Daily Observations layout. Learn more.

Left ArrowRight Arrow

34.16533, -84.80231

Hourly Observations for April 22, 2022

Temp ( °F °C ) Dew Point ( °F °C ) Humidity (%) Winds ( mph kmh ) Pressure ( in mb ) Visibility ( mi km ) Precip ( " mm )
12:15 am 00:15 Mostly Clear 61 16 55 13 83 83 Calm 30.38 1029 10 16 0.00 0.00
12:35 am 00:35 Mostly Clear 61 16 55 13 83 83 Calm 30.38 1029 10 16 0.00 0.00
12:55 am 00:55 Partly Cloudy 61 16 55 13 83 83 E 5 7 30.38 1029 10 16 0.00 0.00
1:15 am 01:15 Partly Cloudy 59 15 55 13 88 88 E 3 6 30.39 1029 10 16 0.00 0.00
1:35 am 01:35 Mostly Clear 59 15 55 13 88 88 Calm 30.39 1029 10 16 0.00 0.00
1:55 am 01:55 Partly Cloudy 59 15 55 13 88 88 Calm 30.39 1029 10 16 0.00 0.00
2:15 am 02:15 Partly Cloudy 57 14 55 13 94 94 Calm 30.38 1029 10 16 0.00 0.00
2:35 am 02:35 Mostly Clear 57 14 55 13 94 94 Calm 30.39 1029 10 16 0.00 0.00
2:55 am 02:55 Clear 57 14 54 12 88 88 Calm 30.38 1029 10 16 0.00 0.00
3:15 am 03:15 Clear 57 14 54 12 88 88 Calm 30.38 1029 10 16 0.00 0.00
3:35 am 03:35 Clear 55 13 54 12 94 94 Calm 30.38 1029 10 16 0.00 0.00
3:55 am 03:55 Clear 55 13 54 12 94 94 Calm 30.38 1029 10 16 0.00 0.00
4:15 am 04:15 Clear 55 13 54 12 94 94 Calm 30.38 1029 10 16 0.00 0.00
4:35 am 04:35 Mostly Clear 55 13 54 12 94 94 Calm 30.38 1029 10 16 0.00 0.00
4:55 am 04:55 Clear 55 13 54 12 94 94 Calm 30.39 1029 10 16 0.00 0.00
5:15 am 05:15 Mostly Clear 54 12 52 11 94 94 Calm 30.39 1029 10 16 0.00 0.00
5:35 am 05:35 Partly Cloudy 54 12 52 11 94 94 SE 3 6 30.39 1029 10 16 0.00 0.00
5:55 am 05:55 Mostly Cloudy 54 12 52 11 94 94 Calm 30.39 1029 10 16 0.00 0.00
6:15 am 06:15 Mostly Cloudy 52 11 52 11 100 100 Calm 30.41 1030 9 14 0.00 0.00
6:35 am 06:35 Clear 52 11 52 11 100 100 Calm 30.41 1030 9 14 0.00 0.00
6:55 am 06:55 Clear 52 11 52 11 100 100 Calm 30.42 1030 10 16 0.00 0.00
7:15 am 07:15 Sunny 52 11 52 11 100 100 Calm 30.43 1030 9 14 0.00 0.00
7:35 am 07:35 Sunny 52 11 52 11 100 100 Calm 30.44 1031 9 14 0.00 0.00
7:55 am 07:55 Sunny 54 12 52 11 94 94 Calm 30.43 1031 10 16 0.00 0.00
8:15 am 08:15 Sunny 55 13 54 12 94 94 Calm 30.44 1031 10 16 0.00 0.00
8:35 am 08:35 Sunny 57 14 55 13 94 94 E 3 6 30.44 1031 10 16 0.00 0.00
8:55 am 08:55 Sunny 59 15 55 13 88 88 E 3 6 30.45 1031 10 16 0.00 0.00
9:15 am 09:15 Sunny 61 16 57 14 88 88 Calm 30.44 1031 10 16 0.00 0.00
9:35 am 09:35 Sunny 63 17 57 14 83 83 Calm 30.44 1031 10 16 0.00 0.00
9:55 am 09:55 Sunny 66 19 57 14 73 73 Calm 30.43 1031 10 16 0.00 0.00
10:15 am 10:15 Sunny 66 19 57 14 73 73 Calm 30.43 1031 10 16 0.00 0.00
10:35 am 10:35 Sunny 68 20 57 14 69 69 Calm 30.42 1030 9 14 0.00 0.00
10:55 am 10:55 Sunny 70 21 57 14 64 64 Calm 30.42 1030 10 16 0.00 0.00
11:15 am 11:15 Sunny 70 21 57 14 64 64 NE 3 6 30.42 1030 10 16 0.00 0.00
11:35 am 11:35 Sunny with Light Rain 72 22 57 14 61 61 Calm 30.42 1030 3 5 0.00 0.00
11:55 am 11:55 Sunny 72 22 57 14 61 61 Calm 30.41 1030 10 16 0.00 0.00
12:15 pm 12:15 Sunny 73 23 57 14 57 57 Calm 30.40 1030 10 16 0.00 0.00
12:35 pm 12:35 Sunny 73 23 57 14 57 57 N 3 6 30.39 1029 10 16 0.00 0.00
12:55 pm 12:55 Sunny 75 24 57 14 54 54 Calm 30.39 1029 10 16 0.00 0.00
1:15 pm 13:15 Sunny 77 25 57 14 51 51 ESE 6 9 30.38 1029 10 16 0.00 0.00
1:35 pm 13:35 Mostly Sunny 77 25 57 14 51 51 VRB 6 9 30.37 1028 10 16 0.00 0.00
1:55 pm 13:55 Sunny 77 25 57 14 51 51 Calm 30.36 1028 10 16 0.00 0.00
2:15 pm 14:15 Sunny 79 26 57 14 48 48 VRB 6 9 30.35 1028 10 16 0.00 0.00
2:35 pm 14:35 Sunny 81 27 54 12 39 39 VRB 3 6 30.33 1027 10 16 0.00 0.00
2:55 pm 14:55 Sunny 81 27 54 12 39 39 VRB 3 6 30.32 1027 10 16 0.00 0.00
3:15 pm 15:15 Sunny 81 27 54 12 39 39 E 7 11 30.31 1027 10 16 0.00 0.00
3:35 pm 15:35 Sunny 82 28 54 12 37 37 VRB 6 9 30.30 1026 10 16 0.00 0.00
3:55 pm 15:55 Sunny 82 28 54 12 37 37 VRB 3 6 30.29 1026 10 16 0.00 0.00
4:15 pm 16:15 Sunny 84 29 52 11 33 33 VRB 5 7 30.28 1025 10 16 0.00 0.00
4:35 pm 16:35 Sunny 84 29 50 10 31 31 S 7 11 30.27 1025 10 16 0.00 0.00
4:55 pm 16:55 Sunny 84 29 52 11 33 33 S 7 11 30.27 1025 10 16 0.00 0.00
5:15 pm 17:15 Sunny 82 28 52 11 35 35 S 6 9 30.26 1025 10 16 0.00 0.00
5:35 pm 17:35 Sunny 84 29 54 12 35 35 Calm 30.25 1024 10 16 0.00 0.00
5:55 pm 17:55 Sunny 82 28 54 12 37 37 SSW 3 6 30.25 1024 10 16 0.00 0.00
6:15 pm 18:15 Mostly Sunny 84 29 52 11 33 33 SSE 7 11 30.24 1024 10 16 0.00 0.00
6:35 pm 18:35 Sunny 82 28 52 11 35 35 VRB 3 6 30.24 1024 10 16 0.00 0.00
6:55 pm 18:55 Sunny 82 28 52 11 35 35 VRB 3 6 30.23 1024 10 16 0.00 0.00
7:15 pm 19:15 Sunny 82 28 52 11 35 35 SE 6 9 30.23 1024 10 16 0.00 0.00
7:35 pm 19:35 Sunny 81 27 54 12 39 39 Calm 30.23 1024 10 16 0.00 0.00
7:55 pm 19:55 Sunny 79 26 54 12 42 42 Calm 30.25 1024 10 16 0.00 0.00
8:15 pm 20:15 Sunny 77 25 54 12 44 44 Calm 30.25 1024 10 16 0.00 0.00
8:35 pm 20:35 Clear 75 24 55 13 50 50 Calm 30.25 1024 10 16 0.00 0.00
8:55 pm 20:55 Partly Cloudy 73 23 55 13 53 53 Calm 30.26 1025 10 16 0.00 0.00
9:15 pm 21:15 Mostly Cloudy 68 20 57 14 69 69 Calm 30.27 1025 10 16 0.00 0.00
9:35 pm 21:35 Mostly Cloudy 68 20 59 15 73 73 Calm 30.27 1025 10 16 0.00 0.00
9:55 pm 21:55 Mostly Cloudy 66 19 59 15 78 78 Calm 30.28 1026 10 16 0.00 0.00
10:15 pm 22:15 Mostly Cloudy 66 19 59 15 78 78 Calm 30.28 1026 10 16 0.00 0.00
10:35 pm 22:35 Partly Cloudy 66 19 59 15 78 78 Calm 30.28 1026 10 16 0.00 0.00
10:55 pm 22:55 Mostly Clear 64 18 59 15 83 83 E 3 6 30.29 1026 10 16 0.00 0.00
11:15 pm 23:15 Mostly Clear 63 17 59 15 88 88 Calm 30.29 1026 10 16 0.00 0.00
11:35 pm 23:35 Clear 63 17 57 14 83 83 ENE 5 7 30.29 1026 10 16 0.00 0.00
11:55 pm 23:55 Clear 63 17 57 14 83 83 ENE 3 6 30.29 1026 10 16 0.00 0.00

Powered by AerisWeather